EHI
0 0 0 0 0 0 0 0 0 0 0 0 0 0 0 0 0 0 0 0 0 0 0 0 0 0 0 0 0 0 0 0 0 0 0 0 0 0 0 0 0 0 0
0 0 0 0 0 0 0 0 0 0 0 0 0 0 0 0 0 0 0 0 0 0 0 0 0 0 0 0 0 0 0 0 0 0 0 0 0 0 0 0 0 0 0
0 0 0 0 0 0 0 0 0 0 0 0 0 0 0 0 0 0 0 0 0 0 0 0 0 0 0 0 0 0 0 0 0 0 0 0 0 0 0 0 0 0 0
0 0 0 0 0 0 0 0 0 0 0 0 0 0 0 0 0 0 0 0 0 0 0 0 0 0 0 0 0 0 0 0 0 0 0 0 0 0 0 0 0 0 0
0 0 0 0 0 0 0 0 0 0 0 0 0 0 0 0 0 0 0 0 0 0 0 0 0 0 0 0 0 0 0 0 0 0 0 0 0 0 0 0 0 0 0
0 0 0 0 0 0 0 0 0 0 0 0 0 0 0 0 0 0 0 0 0 0 0 0 0 0 0 0 0 0 0 0 0 0 0 0 0 0 0 0 0 0 0
0 0 0 0 0 0 0 0 0 0 0 0 0 0 0 0 0 0 0 0 0 0 0 0 0 0 0 0 0 0 0 0 0 0 0 0 0 0 0 0 0 0 0
0 0 0 0 0 0 0 0 0 0 0 0 0 0 0 0 0 0 0 0 0 0 0 0 0 0 0 0 0 0 0 0 0 0 0 0 0 0 0 0 0 0 0
0 0 0 0 0 0 0 0 0 0 0 0 0 0 0 0 0 0 0 0 0 0 0 0 0 0 0 0 0 0 0 0 0 0 0 0 0 0 0 0 0 0 0
0 0 0 0 0 0 0 0 0 0 0 0 0 0 0 0 0 0 0 0 0 0 0 0 0 0 0 0 0 0 0 0 0 0 0 0 0 0 0 0 0 0 0
0 0 0 0 0 0 0 0 0 0 0 0 0 0 0 0 0 0 0 0 0 0 0 0 0 0 0 0 0 0 0 0 0 0 0 0 0 0 0 0 0 0 0
0 0 0 0 0 0 0 0 0 0 0 0 0 0 0 0 0 0 0 0 0 0 0 0 0 0 0 0 0 0 0 0 0 0 0 0 0 0 0 0 0 0 0
0 0 0 0 0 0 0 0 0 0 0 0 0 0 0 0 0 0 0 0 0 0 0 0 0 0 0 0 0 0 0 0 0 0 0 0 0 0 0 0 0 0 0
0 0 0 0 0 0 0 0 0 0 0 0 0 0 0 0 0 0 0 0 0 0 0 0 0 0 0 0 0 0 0 0 0 0 0 0 0 0 0 0 0 0 0
0 0 0 0 0 0 0 0 0 0 0 0 0 0 0 0 0 0 0 0 0 0 0 0 0 0 0 0 0 0 0 0 0 0 0 0 0 0 0 0 0 0 0
0 0 0 0 0 0 0 0 0 0 0 0 0 0 0 0 0 0 0 0 0 0 0 0 0 0 0 0 0 0 0 0 0 0 0 0 0 0 0 0 0 0 0
0 0 0 0 0 0 0 0 0 0 0 0 0 0 0 0 0 0 0 0 0 0 0 0 0 0 0 0 0 0 0 0 0 0 0 0 0 0 0 0 0 0 0
0 0 0 0 0 0 0 0 0 0 0 0 0 0 0 0 0 0 0 0 0 0 0 0 0 0 0 0 0 0 0 0 0 0 0 0 0 0 0 0 0 0 0
0 0 0 0 0 0 0 0 0 0 0 0 0 0 0 0 0 0 0 0 0 0 0 0 0 0 0 0 0 0 0 0 0 0 0 0 0 0 0 0 0 0 0
0 0 0 0 0 0 0 0 0 0 0 0 0 0 0 0 0 0 0 0 0 0 0 0 0 0 0 0 0 0 0 0 0 0 0 0 0 0 0 0 0 0 0
0 0 0 0 0 0 0 0 0 0 0 0 0 0 0 0 0 0 0 0 0 0 0 0 0 0 0 0 0 0 0 0 0 0 0 0 0 0 0 0 0 0 0
0 0 0 0 0 0 0 0 0 0 0 0 0 0 0 0 0 0 0 0 0 0 0 0 0 0 0 0 0 0 0 0 0 0 0 0 0 0 0 0 0 0 0
0 0 0 0 0 0 0 0 0 0 0 0 0 0 0 0 0 0 0 0 0 0 0 0 0 0 0 0 0 0 0 0 0 0 0 0 0 0 0 0 0 0 0
0 0 0 0 0 0 0 0 0 0 0 0 0 0 0 0 0 0 0 0 0 0 0 0 0 0 0 0 0 0 0 0 0 0 0 0 0 0 0 0 0 0 0
0 0 0 0 0 0 0 0 0 0 0 0 0 0 0 0 0 0 0 0 0 0 0 0 0 0 0 0 0 0 0 0 0 0 0 0 0 0 0 0 0 0 0
0 0 0 0 0 0 0 0 0 0 0 0 0 0 0 0 0 0 0 0 0 0 0 0 0 0 0 0 0 0 0 0 0 0 0 0 0 0 0 0 0 0 0
Wind_Speed
10 9 7 7 8 7 8 7 7 8 7 7 6 6 6 5 4 4 4 6 5 5 6 5 5 5 5 4 5 5 5 5 6 6 7 8 8 9 10 11 11 12 13
10 10 9 8 8 8 7 7 8 7 6 6 6 6 5 5 4 4 4 5 5 4 4 4 3 3 3 3 3 3 4 4 5 6 7 7 8 9 10 11 11 12 13
12 10 9 9 8 8 9 7 8 6 5 5 6 6 4 4 4 4 4 3 4 4 3 2 2 1 1 1 2 2 3 4 5 6 7 8 9 10 11 11 12 13 13
14 11 9 9 9 8 8 7 7 7 6 6 5 5 4 3 4 4 3 3 3 2 3 2 1 0 0 1 2 2 3 4 5 6 7 8 9 10 11 12 13 13 14
15 11 9 9 10 8 8 7 7 7 7 6 5 4 4 4 4 4 4 4 3 3 2 3 2 0 2 2 3 3 4 5 6 7 8 9 10 11 12 12 13 14 15
15 12 9 11 11 9 8 9 9 7 6 5 5 4 3 3 4 4 4 4 4 4 3 3 3 2 1 2 3 4 5 5 6 7 8 9 10 11 12 13 14 15 15
16 13 10 12 11 10 10 11 9 9 7 6 5 4 4 4 5 4 4 4 5 4 4 4 3 3 2 2 3 4 5 6 7 8 9 10 11 12 13 13 14 15 16
16 13 14 11 12 10 12 12 10 8 6 6 5 4 4 5 5 5 4 4 5 4 4 4 4 4 3 2 1 3 6 7 8 9 10 11 11 12 13 14 15 16 16
17 15 16 13 13 12 11 12 12 11 8 8 6 4 3 3 3 5 6 5 5 5 4 4 5 4 4 3 3 3 5 8 9 10 11 11 12 13 13 14 15 16 16
17 16 16 15 14 12 12 13 13 10 10 8 7 5 3 1 2 3 4 5 5 5 5 4 4 4 4 4 3 4 5 8 9 10 11 12 12 13 14 14 15 16 16
16 17 16 15 14 12 14 14 13 12 10 9 7 6 5 3 4 3 3 4 4 4 4 4 4 4 4 4 4 4 6 7 9 10 11 12 13 13 14 14 15 16 16
13 18 17 16 15 13 14 14 13 14 11 11 9 7 6 5 5 4 4 4 3 3 4 4 4 3 3 4 4 4 6 8 9 10 11 11 12 13 13 14 15 16 16
13 17 16 16 15 14 14 14 13 13 14 13 11 8 7 6 4 4 4 3 3 2 3 4 4 3 3 3 3 3 6 8 9 9 10 10 11 12 13 13 14 15 16
14 17 18 17 16 16 14 14 12 13 12 13 12 11 7 7 6 5 4 3 3 3 4 4 3 4 3 3 2 3 4 6 8 9 9 9 10 11 12 13 14 14 15
12 17 18 17 17 16 16 15 12 14 12 12 12 12 9 7 6 5 5 5 4 4 4 3 3 3 2 2 1 3 4 5 7 8 9 9 9 10 11 12 13 14 14
14 15 17 18 17 17 16 15 13 13 13 12 10 11 10 7 6 5 5 5 5 5 4 2 3 2 2 2 2 4 4 5 6 7 8 9 9 10 11 11 12 13 13
15 16 16 17 17 17 16 15 14 14 14 13 11 12 11 10 7 6 5 5 5 5 6 4 2 2 3 3 2 3 3 4 3 6 8 8 9 9 10 11 11 12 13
16 16 16 16 17 17 17 17 16 15 15 14 13 12 12 9 10 7 6 7 6 6 5 6 3 2 3 3 3 3 3 3 4 5 7 8 9 9 10 10 11 11 12
15 16 16 16 16 16 16 16 16 15 15 14 14 13 12 12 11 8 8 7 5 5 5 4 3 1 2 1 3 3 3 3 4 4 6 7 8 9 9 10 10 11 11
15 16 16 15 15 15 15 15 15 14 14 13 12 12 12 12 12 11 8 8 6 6 5 4 3 2 2 1 2 3 3 3 4 3 5 6 7 8 8 9 9 9 10
14 15 15 14 14 13 13 15 14 13 13 12 11 11 11 11 11 9 7 8 7 5 4 4 4 2 2 1 2 2 3 3 4 2 5 4 5 5 5 6 6 8 10
13 14 15 15 15 11 14 17 15 13 13 13 12 11 10 11 11 11 10 9 9 7 6 5 4 4 4 3 1 1 2 3 3 1 5 5 4 5 5 4 6 9 10
13 14 14 15 15 15 17 19 17 13 12 12 12 11 8 8 11 9 9 9 7 6 5 5 5 4 3 2 1 2 2 3 4 3 4 5 4 5 5 5 7 8 10
13 13 13 14 13 14 19 20 19 14 11 11 11 11 11 11 10 10 9 7 6 4 4 3 3 2 1 1 1 1 2 3 3 2 3 4 5 6 6 5 5 8 10
12 12 12 13 13 14 19 21 19 12 9 10 10 10 11 11 13 14 10 9 7 4 4 5 4 4 4 3 2 1 1 1 2 1 1 3 4 6 6 4 4 8 10
10 10 10 11 13 13 18 21 20 10 10 9 8 9 11 12 15 16 11 10 8 6 6 5 4 4 3 4 3 1 0 1 2 2 1 3 3 4 5 4 5 6 6
Wind_Direction
166 166 165 164 163 159 160 162 163 156 156 154 154 153 148 144 138 133 113 80 85 100 107 107 106 100 92 82 69 56 44 32 25 18 12 6 4 0 358 355 352 350 348
169 170 167 167 165 165 164 168 165 160 157 159 159 160 157 152 152 149 140 123 97 90 100 104 107 101 97 85 65 44 27 16 8 2 358 354 351 349 347 346 345 343 341
172 172 171 171 169 167 167 169 162 165 160 161 167 165 164 167 168 162 160 162 145 112 102 107 111 117 99 70 35 17 2 355 351 346 342 342 341 340 338 338 337 336 336
176 174 173 174 170 169 171 170 169 171 169 173 170 167 173 173 188 178 177 182 179 169 139 106 131 154 275 318 327 334 334 334 334 333 333 334 334 334 333 333 333 332 332
178 177 175 173 171 173 176 174 177 178 174 173 170 173 181 188 188 195 197 192 192 199 194 133 130 335 276 287 301 310 314 318 322 325 328 331 331 331 330 330 330 330 329
181 180 176 177 175 176 178 180 178 178 176 170 166 177 190 196 205 207 205 201 203 207 216 207 199 167 216 292 294 302 305 310 315 320 323 324 324 324 324 325 325 325 325
182 182 178 180 181 183 184 184 178 176 176 171 174 180 191 205 214 207 209 212 208 210 219 221 230 230 207 220 268 291 301 306 309 312 315 317 318 319 320 322 322 323 323
185 185 183 182 185 186 187 186 182 181 174 186 191 184 191 192 201 209 211 218 220 208 217 226 230 233 246 243 219 282 298 301 305 308 310 311 313 315 317 319 320 321 321
188 188 188 186 187 189 189 188 188 189 182 188 202 204 203 201 174 189 207 215 217 219 219 219 229 236 244 253 256 251 283 293 299 303 305 308 310 312 314 317 318 319 321
190 191 191 192 190 192 192 191 193 194 189 188 192 219 241 256 212 183 189 205 215 227 227 216 225 230 237 245 255 285 286 289 293 298 302 304 305 308 312 315 317 319 321
193 193 193 193 193 194 195 193 193 196 196 197 193 190 199 210 237 238 218 200 203 213 222 226 224 228 233 243 252 273 279 284 290 294 298 301 303 306 309 313 316 319 319
192 194 194 194 195 196 196 195 194 197 199 202 200 199 198 198 204 214 233 230 230 202 212 220 225 224 229 244 249 283 276 281 286 290 295 299 302 304 308 312 314 316 317
191 195 193 196 196 197 196 195 195 198 201 203 205 206 209 215 207 214 232 242 245 225 213 216 214 220 225 245 246 262 262 276 283 288 292 297 300 304 307 309 312 314 316
195 192 194 196 196 195 195 195 196 199 202 204 209 207 208 211 207 210 219 227 245 240 225 220 195 215 224 240 281 258 267 270 282 286 290 295 299 302 304 307 309 312 314
195 193 193 195 195 195 195 195 199 199 200 203 205 206 208 207 207 211 214 217 230 252 253 218 208 197 218 249 276 265 271 282 282 286 291 296 299 301 303 305 307 309 314
192 193 194 195 194 194 194 195 199 199 198 200 200 202 205 203 200 203 208 216 225 240 255 244 229 199 215 252 269 276 280 293 280 288 293 297 301 303 304 304 306 310 315
193 194 195 195 194 193 193 195 198 194 198 198 196 201 203 201 196 197 201 206 213 223 243 252 238 222 237 256 264 277 285 287 285 290 294 299 303 304 303 304 307 311 314
195 195 194 195 195 194 193 195 196 194 197 198 197 198 201 197 199 196 196 202 207 213 230 247 243 229 249 270 283 282 288 292 294 298 294 298 301 301 302 304 307 311 314
195 194 192 194 194 194 194 195 195 194 196 198 197 198 198 196 199 197 196 200 202 204 218 233 246 232 248 274 285 282 288 296 301 300 293 296 297 300 302 304 308 312 315
194 194 194 193 192 192 192 192 192 192 193 196 197 197 197 198 200 196 195 199 195 196 203 218 233 232 243 272 279 287 292 299 300 299 297 301 298 297 299 302 309 315 318
194 193 192 191 190 189 191 189 189 189 189 190 192 195 197 197 196 191 187 190 187 191 194 207 221 223 227 240 263 283 291 311 300 297 308 302 300 297 301 300 307 318 319
190 191 192 190 189 189 182 182 183 185 186 187 188 190 189 188 187 186 182 180 183 191 196 200 213 223 233 236 259 285 303 313 296 327 311 301 301 301 308 308 315 314 318
188 189 191 189 190 187 175 176 178 182 184 186 185 183 181 182 182 185 178 169 174 183 196 201 210 223 225 219 225 264 280 293 296 329 313 293 304 304 312 307 307 308 316
188 187 189 189 188 182 173 174 173 183 182 184 184 182 180 179 180 176 171 170 175 181 192 201 211 210 185 177 213 261 286 298 303 308 322 290 310 312 312 299 296 304 312
187 186 185 186 185 179 172 171 170 181 178 178 178 180 178 178 169 164 163 162 162 159 138 133 118 102 97 96 101 99 34 319 299 302 337 301 310 318 306 293 301 304 307
184 178 181 185 183 179 172 171 171 175 172 170 170 174 176 172 164 164 170 167 169 169 152 143 136 120 109 104 107 104 174 304 309 293 349 314 311 328 309 301 312 310 306